Zurück zum Katalog

BREEZE-M DEB

LostHEO
NORAD 39934·DEBRIS·🇷🇺 Russia

Gestartet Feb 28, 2006 von Baikonur Cosmodrome

Loading…

Nächste Überflüge (nächste 24 Stunden)

TLE

VeraltetSource: Space-Track

Epoche: Jun 23, 2013, 20:06 UTC

1 39934U 06006DG  13174.83813748  .00048935  00000-0  11119-1 0  9991
2 39934  51.9938  12.1867 4178105 211.2021 110.7155  6.98403534 78417

Verfolge BREEZE-M DEB in Echtzeit mit AllMySat

Download on the App Store